Wind_Speed
12 9 8 7 6 6 5 6 7 8 9 10 11 9 6 4 5 7 7 7 6 6 6 6 8 8 9 9 9 8 9 9 10 12 11 10 11 10 11 12 12 12
12 11 10 8 7 7 7 7 8 9 11 12 11 6 4 6 7 8 7 7 6 6 6 7 8 9 9 9 9 8 9 10 11 11 10 10 11 10 11 12 12 12
13 12 10 9 9 8 7 8 9 10 12 12 7 3 6 8 9 9 8 6 6 6 7 8 9 9 9 9 9 9 9 10 10 10 9 9 10 10 11 11 11 11
13 11 11 11 11 8 8 9 10 10 12 9 2 6 8 10 10 9 8 7 6 6 8 9 9 9 9 9 9 9 9 9 10 10 8 8 9 9 10 11 11 12
13 12 13 14 11 8 8 10 10 10 10 3 7 9 9 10 9 8 7 7 6 6 7 8 9 9 9 9 8 8 8 8 9 8 7 8 9 9 10 11 12 13
13 14 15 12 9 8 10 10 9 10 6 4 10 10 10 10 9 8 7 6 6 6 7 8 9 9 9 9 8 7 7 7 8 7 6 8 9 9 11 12 12 14
16 16 14 10 9 10 11 9 9 9 3 9 11 10 11 10 9 9 7 6 6 7 7 8 8 8 8 8 7 6 6 6 7 7 6 7 8 9 11 12 13 14
17 15 12 10 11 11 10 9 8 6 6 12 12 11 11 10 9 9 7 7 7 7 8 8 8 8 8 8 6 5 5 6 6 6 6 7 8 9 12 12 12 13
16 13 12 12 12 11 9 9 8 5 10 13 12 12 12 11 9 8 8 8 7 7 7 8 8 8 8 7 6 5 5 6 6 6 6 7 8 10 12 12 12 13
15 14 14 13 13 12 10 9 8 7 12 14 12 12 12 12 11 9 9 8 7 7 7 8 7 7 8 7 7 6 6 6 6 6 7 7 8 10 11 11 12 13
16 15 14 13 13 12 11 10 9 9 14 14 13 12 12 12 12 11 10 9 8 7 7 8 7 7 7 7 7 7 6 6 6 6 7 7 8 9 10 11 11 12
15 15 13 13 13 12 11 10 10 12 15 15 14 13 12 12 12 12 11 10 9 9 8 8 7 7 8 7 7 7 7 6 6 6 6 7 8 9 9 10 11 12
15 14 13 13 13 13 12 10 12 14 15 15 15 13 12 12 12 13 12 11 10 10 9 8 7 8 8 8 7 7 7 6 6 5 6 7 8 9 9 10 10 12
14 13 12 13 13 13 12 12 15 16 16 16 15 14 13 12 13 13 13 12 11 10 10 9 8 9 9 8 8 8 7 6 6 5 6 7 8 8 9 9 10 11
14 13 13 13 14 14 14 14 17 18 18 17 15 14 14 13 14 14 13 13 12 11 10 9 9 9 9 8 8 8 7 6 5 5 6 8 9 8 8 9 10 11
14 13 13 14 15 15 16 17 19 20 19 17 15 15 14 14 15 14 13 13 12 12 11 10 10 10 9 9 8 8 7 6 5 5 6 8 8 8 8 8 10 11
14 13 14 15 16 17 18 20 21 21 19 17 16 15 15 15 15 15 14 13 12 12 11 10 11 10 10 9 9 8 7 6 5 5 6 7 7 7 7 8 9 10
14 13 14 16 17 18 20 21 22 21 19 17 16 15 15 16 16 15 15 15 14 12 11 11 11 11 10 10 9 9 8 6 6 5 6 7 7 6 7 7 8 9
15 14 15 16 18 19 21 23 22 21 19 17 16 15 16 17 17 16 16 15 15 14 12 11 11 11 11 10 10 10 9 8 6 5 6 7 6 6 6 6 7 7
16 15 16 17 19 20 22 23 23 21 19 17 16 16 16 17 17 17 16 16 15 14 13 12 11 11 11 11 11 11 10 8 7 5 5 6 6 5 5 5 6 6
17 17 17 18 20 21 23 24 23 21 19 18 17 16 16 17 17 17 17 16 16 15 14 13 12 12 11 11 12 12 10 9 8 6 5 5 5 4 4 4 4 5
19 18 18 19 20 22 24 24 23 21 20 18 18 17 17 18 17 17 17 16 16 15 14 14 13 12 12 12 12 12 11 10 9 7 6 5 4 3 3 3 3 4
21 19 19 19 21 22 24 24 22 21 20 19 18 18 18 18 18 17 17 17 16 15 15 14 14 13 13 13 13 12 11 10 9 8 7 6 5 4 3 2 2 2
21 21 19 19 21 22 23 22 22 21 19 19 18 18 18 19 18 18 18 17 16 15 14 14 14 13 14 13 13 12 12 11 10 9 8 6 5 4 3 2 1 1
21 21 20 19 20 21 21 21 21 20 19 18 18 18 18 19 19 19 18 18 17 16 15 14 14 13 13 13 13 13 12 11 11 10 9 8 6 5 4 3 2 1
21 21 20 20 19 20 20 20 21 21 19 19 19 19 19 19 19 19 19 18 18 17 16 16 15 14 13 13 13 13 12 12 11 11 10 9 8 6 5 3 2 2
Wind_Direction
196 200 210 223 234 242 260 286 295 295 294 298 305 304 285 225 176 151 143 142 136 129 122 117 109 102 97 94 91 90 85 78 73 69 64 61 60 57 57 56 54 53
199 201 214 228 229 237 260 279 284 285 290 298 303 291 226 186 164 153 149 144 136 129 122 115 109 105 100 97 94 88 81 73 70 68 63 60 60 57 57 57 55 53
201 207 219 223 223 239 262 275 282 286 294 302 300 222 180 171 163 157 149 141 135 130 123 115 111 109 103 97 92 84 78 73 70 68 62 61 62 60 60 59 56 54
203 213 217 215 223 243 263 275 281 287 296 300 226 168 169 167 163 155 147 142 139 131 123 117 114 111 104 95 87 81 77 74 71 67 61 63 66 65 64 62 57 55
207 214 212 216 229 244 263 275 278 285 294 277 158 161 166 164 159 154 151 146 138 130 123 121 117 109 101 94 88 81 77 74 73 70 63 65 69 67 66 63 57 55
211 209 210 220 233 246 264 272 270 279 285 162 154 162 163 163 159 156 154 143 136 132 127 122 115 106 100 95 91 83 79 80 79 75 68 69 72 70 69 65 58 55
211 209 214 223 234 250 262 261 264 276 237 154 157 164 164 164 161 156 153 145 143 138 129 120 111 107 104 99 95 89 90 92 87 83 78 76 76 74 71 67 60 57
210 212 219 227 237 249 251 246 261 264 179 157 160 167 166 163 159 156 155 154 152 141 129 122 115 113 110 105 104 102 104 103 97 93 86 81 80 76 72 67 61 58
210 214 223 232 237 241 239 240 255 226 166 160 164 169 167 160 159 161 160 159 154 144 133 126 123 121 117 116 118 119 116 111 107 102 93 86 81 76 72 67 62 59
210 216 224 230 231 234 234 235 240 196 164 163 167 171 169 162 162 164 164 161 155 149 140 131 130 127 125 128 130 130 127 120 115 106 97 91 83 77 73 68 63 60
214 219 223 227 228 232 231 228 220 182 167 167 168 172 171 166 165 165 165 164 158 155 147 138 137 133 132 138 140 140 138 130 122 112 103 96 87 80 75 69 65 61
217 221 223 226 227 229 228 218 197 175 171 171 170 173 173 168 168 168 166 166 162 159 155 150 147 143 142 147 149 149 148 139 129 120 110 102 92 83 75 69 65 61
218 221 224 224 221 224 225 206 181 175 175 174 172 174 175 171 171 173 171 168 165 162 161 159 156 153 152 157 161 160 156 149 140 130 118 106 94 85 75 69 66 60
217 217 218 217 214 218 217 193 178 177 178 178 175 173 175 175 176 177 175 170 168 168 167 163 161 161 162 167 172 169 164 159 150 135 118 104 96 87 77 72 67 62
214 212 211 210 208 211 206 188 179 179 179 179 178 175 176 177 179 180 178 174 172 172 171 167 164 167 170 174 178 175 170 166 158 137 113 101 95 88 81 75 69 65
209 207 208 207 204 205 199 187 182 182 181 180 179 178 178 179 179 180 179 179 178 176 174 170 169 172 175 176 178 178 174 169 159 136 113 102 95 89 83 77 70 65
205 205 206 205 203 200 194 188 184 184 183 182 180 180 181 181 181 180 180 181 182 181 177 175 175 176 178 178 176 174 172 166 155 134 116 108 100 90 84 76 68 63
204 206 207 205 201 197 191 187 186 185 185 184 184 185 185 184 183 184 184 183 182 183 182 181 181 180 178 178 175 171 169 162 150 135 119 112 105 95 85 75 65 58
205 208 210 207 200 194 190 188 187 187 186 186 187 188 189 188 187 187 188 187 184 184 185 185 186 184 180 177 174 172 170 163 155 141 122 114 110 101 90 78 66 56
207 210 212 208 199 193 190 189 189 188 187 187 188 189 190 191 191 190 190 189 186 185 188 190 190 188 184 179 175 174 172 168 163 152 133 121 115 110 97 83 71 59
208 210 211 206 198 192 191 191 191 190 188 188 188 190 192 193 193 194 192 189 187 188 190 192 193 192 188 183 178 177 176 175 173 167 154 136 125 121 107 89 72 59
207 208 208 204 197 193 193 192 192 191 189 189 190 190 192 193 195 195 194 191 190 191 193 195 196 195 192 187 182 181 182 182 181 180 173 160 148 142 125 101 77 57
206 207 208 203 199 197 195 193 193 193 190 190 193 194 192 193 194 194 194 193 193 193 195 198 199 197 195 190 186 185 186 186 187 188 186 179 171 166 151 126 95 61
207 208 208 205 203 200 196 194 195 195 192 191 194 196 194 193 193 193 194 193 193 196 198 200 202 201 198 194 190 190 190 190 192 193 193 190 185 183 180 165 139 86
210 208 208 208 206 202 198 196 195 195 194 192 191 191 193 194 193 194 195 194 193 194 197 199 201 202 202 199 194 193 193 192 194 195 195 195 193 191 192 190 187 199
209 208 208 209 208 205 199 196 196 196 195 192 189 188 190 193 195 195 195 195 195 194 194 196 196 198 204 205 200 197 195 192 191 192 193 193 193 194 197 201 207 224
Height
1548 1550 1551 1553 1554 1555 1556 1556 1557 1557 1557 1557 1557 1557 1557 1558 1559 1560 1561 1562 1563 1563 1564 1564 1564 1565 1565 1565 1566 1566 1567 1567 1567 1567 1567 1567 1566 1566 1566 1566 1565 1565
1548 1550 1551 1552 1553 1554 1555 1556 1556 1556 1556 1556 1555 1556 1556 1558 1559 1560 1561 1562 1563 1563 1563 1564 1564 1564 1565 1565 1566 1567 1567 1567 1566 1567 1567 1567 1567 1566 1566 1566 1566 1566
1547 1549 1550 1552 1552 1554 1554 1555 1555 1555 1555 1554 1554 1555 1556 1557 1559 1560 1561 1562 1562 1563 1563 1564 1564 1565 1565 1566 1566 1566 1566 1566 1566 1567 1567 1567 1567 1567 1567 1567 1567 1566
1547 1548 1549 1551 1552 1553 1554 1554 1554 1554 1554 1553 1553 1554 1556 1557 1558 1559 1560 1561 1562 1563 1563 1564 1564 1565 1565 1566 1566 1566 1566 1566 1567 1567 1567 1567 1568 1568 1567 1567 1567 1566
1545 1547 1548 1549 1551 1552 1553 1553 1553 1553 1552 1552 1552 1554 1555 1557 1558 1559 1560 1561 1562 1562 1563 1564 1564 1564 1565 1565 1566 1566 1566 1567 1567 1567 1568 1568 1568 1568 1568 1567 1567 1566
1544 1545 1547 1548 1549 1550 1551 1552 1552 1552 1551 1551 1552 1554 1555 1557 1558 1559 1560 1561 1561 1562 1563 1563 1564 1564 1565 1565 1566 1566 1567 1567 1567 1568 1568 1568 1568 1568 1567 1567 1567 1566
1542 1544 1545 1547 1548 1549 1550 1550 1550 1550 1550 1551 1552 1553 1555 1556 1558 1559 1560 1560 1561 1562 1563 1563 1564 1564 1565 1566 1566 1567 1567 1567 1568 1568 1569 1568 1568 1568 1567 1567 1567 1566
1541 1543 1544 1546 1547 1548 1548 1548 1549 1549 1549 1550 1551 1553 1555 1556 1557 1558 1559 1560 1561 1562 1562 1563 1564 1564 1565 1566 1566 1567 1567 1568 1568 1568 1569 1568 1568 1568 1567 1567 1567 1567
1540 1541 1543 1544 1545 1546 1546 1547 1547 1548 1548 1549 1551 1553 1554 1555 1557 1558 1559 1560 1561 1562 1562 1563 1564 1564 1565 1566 1567 1567 1568 1568 1568 1569 1569 1568 1568 1568 1567 1567 1567 1567
1538 1540 1542 1543 1544 1544 1545 1545 1546 1546 1547 1548 1550 1552 1553 1555 1556 1557 1559 1560 1560 1561 1562 1563 1564 1564 1565 1566 1567 1567 1568 1568 1568 1569 1568 1568 1568 1568 1568 1568 1567 1567
1537 1538 1540 1541 1542 1543 1543 1544 1544 1545 1546 1548 1549 1551 1553 1554 1555 1557 1558 1559 1560 1561 1562 1563 1563 1564 1565 1566 1567 1567 1568 1568 1568 1569 1568 1568 1568 1568 1568 1568 1567 1567
1535 1537 1538 1539 1540 1541 1541 1542 1543 1544 1545 1547 1549 1550 1552 1553 1555 1556 1558 1559 1560 1561 1562 1562 1563 1564 1564 1565 1566 1567 1568 1568 1568 1568 1568 1568 1568 1568 1568 1568 1568 1567
1533 1535 1536 1537 1538 1539 1540 1540 1541 1543 1545 1546 1548 1550 1551 1553 1554 1555 1557 1558 1559 1560 1561 1562 1562 1563 1564 1565 1566 1567 1568 1568 1568 1568 1568 1568 1568 1568 1568 1568 1567 1567
1531 1533 1534 1535 1537 1538 1538 1539 1540 1542 1544 1546 1547 1549 1550 1552 1553 1555 1556 1557 1558 1559 1560 1561 1562 1563 1564 1564 1565 1566 1567 1568 1568 1568 1568 1568 1567 1567 1567 1567 1567 1567
1529 1531 1532 1534 1535 1536 1537 1538 1540 1541 1543 1545 1547 1548 1549 1551 1552 1554 1555 1556 1557 1558 1560 1560 1561 1562 1563 1564 1565 1566 1566 1567 1567 1567 1567 1567 1567 1567 1567 1567 1567 1567
1527 1529 1530 1532 1533 1534 1536 1537 1539 1541 1542 1544 1546 1547 1549 1550 1551 1553 1554 1555 1556 1558 1559 1559 1560 1561 1562 1563 1564 1565 1566 1566 1566 1567 1567 1567 1567 1566 1567 1567 1567 1567
1525 1527 1528 1530 1531 1533 1534 1536 1538 1539 1541 1543 1544 1546 1547 1549 1551 1552 1553 1555 1556 1557 1558 1558 1559 1560 1561 1562 1563 1564 1565 1565 1566 1566 1566 1566 1566 1566 1566 1566 1567 1567
1523 1525 1527 1528 1530 1531 1533 1535 1536 1538 1540 1542 1543 1545 1546 1548 1550 1551 1552 1553 1555 1556 1557 1558 1559 1560 1561 1562 1562 1563 1564 1565 1565 1565 1565 1566 1566 1566 1566 1566 1566 1566
1522 1523 1525 1526 1528 1529 1531 1533 1535 1537 1539 1541 1542 1544 1545 1547 1548 1550 1551 1552 1554 1555 1556 1557 1558 1559 1560 1561 1561 1562 1563 1564 1565 1565 1565 1565 1565 1565 1566 1566 1566 1566
1520 1522 1523 1525 1526 1528 1530 1532 1534 1536 1537 1539 1541 1542 1544 1546 1547 1549 1550 1551 1553 1554 1555 1556 1557 1558 1559 1560 1561 1561 1562 1563 1564 1564 1565 1565 1565 1565 1565 1565 1566 1566
1518 1520 1521 1523 1524 1526 1528 1530 1532 1534 1536 1538 1539 1541 1543 1545 1546 1548 1549 1550 1551 1552 1554 1555 1556 1557 1558 1559 1560 1561 1562 1563 1563 1564 1564 1564 1564 1564 1565 1565 1565 1565
1516 1518 1520 1521 1523 1525 1527 1529 1531 1533 1535 1537 1538 1540 1542 1543 1545 1546 1548 1549 1550 1551 1552 1553 1554 1555 1557 1558 1559 1560 1561 1562 1562 1563 1563 1563 1564 1564 1564 1564 1564 1564
1514 1516 1518 1519 1521 1523 1525 1528 1530 1532 1534 1535 1537 1538 1540 1542 1543 1545 1546 1548 1549 1550 1551 1552 1553 1554 1555 1556 1557 1559 1560 1561 1561 1562 1562 1563 1563 1563 1563 1564 1564 1564
1513 1515 1516 1518 1519 1522 1524 1526 1529 1531 1533 1534 1536 1537 1539 1540 1542 1543 1545 1546 1547 1549 1550 1551 1552 1553 1554 1555 1556 1558 1559 1560 1560 1561 1562 1562 1562 1562 1563 1563 1563 1563
1511 1513 1515 1517 1519 1521 1523 1525 1527 1530 1532 1533 1534 1536 1537 1539 1540 1542 1543 1545 1546 1547 1549 1550 1552 1553 1554 1555 1556 1557 1558 1559 1560 1561 1561 1561 1561 1561 1562 1562 1562 1562
1510 1511 1513 1515 1518 1520 1522 1524 1526 1528 1530 1531 1533 1534 1535 1537 1539 1540 1542 1543 1545 1546 1547 1549 1550 1552 1554 1555 1556 1556 1557 1558 1558 1559 1560 1560 1560 1561 1561 1561 1561 1562